NOAA 17 DEB

基本信息
目录编号:
48714
目录名称:
NOAA 17 DEB
国际标识:
2002-032AX
轨道中心:
EARTH
物体状态:
已陨落(2026-01-14)
发射日期:
2002-06-24 UTC
轨道信息
数据来源: 国际轨道数据
星历时间: 2025-12-24T04:45:50+0800
半长轴: 6799.932km
偏心率: 0.0021814
轨道倾角: 98.445°
近地点辐角: 102.502°
升交点赤经: 326.403°
平近点角: 257.867°
近地点: 406.961km
远地点: 436.629km
周期: 93.007分钟
每日圈数: 15.482675
详细信息
发射场:
AFWTR
轨道高度:
LEO
数据来源:
AOE Integration Group
参考系:
TEME
时间系统:
UTC
历元类型:
SGP4
2D轨道图
3D轨道图
轨道高度分析图
轨道倾角分析图
轨道综合分析图
查看轨道综合分析图